EZY1760 LIRN-EGNT

Flight info

Callsign EZY1760
Flight time 2h 46m
Altitude 38000
Route ALAXI DCT INSOX DCT SOVAN DCT GINAR DCT GIPIX DCT MONEB DCT AOSTA DCT ORSUD DCT MOLUS DCT IBODI UT423 CLM UM733 KOPOR UY376 VESAN UL613 SOVAT L613 MAMUL UY250 RIMTO
Aircraft A20N/M-SDE2E3FGHIRWXY/LB1

Departure

Time 2026-05-05 10:48
Airport Naples International Airport (LIRN)

Arrival

Time 2026-05-05 13:35
Airport Newcastle International Airport (EGNT)
Time Latitude Longitude Altitude Speed Heading
2026-05-05 10:20 40.88198 14.28715 282 ft 0 kts 329°
2026-05-05 10:39 40.88183 14.28727 280 ft 4 kts 329°
2026-05-05 10:39 40.88160 14.28746 280 ft 4 kts 313°
2026-05-05 10:39 40.88148 14.28774 282 ft 4 kts 263°
2026-05-05 10:40 40.88152 14.28789 281 ft 1 kts 232°
2026-05-05 10:43 40.88148 14.28784 281 ft 3 kts 233°
2026-05-05 10:43 40.88123 14.28740 281 ft 10 kts 233°
2026-05-05 10:44 40.88069 14.28646 284 ft 16 kts 233°
2026-05-05 10:44 40.88048 14.28490 287 ft 20 kts 278°
2026-05-05 10:44 40.88062 14.28293 291 ft 22 kts 274°
2026-05-05 10:44 40.88025 14.28145 296 ft 15 kts 252°
2026-05-05 10:45 40.88019 14.28103 297 ft 0 kts 259°
2026-05-05 10:45 40.88022 14.28096 297 ft 2 kts 290°
2026-05-05 10:45 40.88026 14.28090 297 ft 0 kts 304°
2026-05-05 10:47 40.88030 14.28083 298 ft 3 kts 311°
2026-05-05 10:47 40.88081 14.28045 297 ft 15 kts 349°
2026-05-05 10:48 40.88175 14.28173 292 ft 43 kts 58°
2026-05-05 10:48 40.88490 14.28837 275 ft 124 kts 57°
2026-05-05 10:48 40.89061 14.30035 358 ft 175 kts 57°
2026-05-05 10:48 40.89712 14.31448 1016 ft 180 kts 57°
2026-05-05 10:49 40.90381 14.32821 1930 ft 174 kts 57°
2026-05-05 10:49 40.91056 14.34203 2592 ft 187 kts 58°
2026-05-05 10:49 40.91529 14.35199 2898 ft 199 kts 58°
2026-05-05 10:49 40.92289 14.36841 3249 ft 222 kts 59°
2026-05-05 10:50 40.93115 14.38659 3794 ft 236 kts 59°
2026-05-05 10:50 40.94210 14.40267 4649 ft 237 kts 29°
2026-05-05 10:50 40.95739 14.40925 5497 ft 234 kts 356°
2026-05-05 10:50 40.97262 14.40439 6459 ft 222 kts 323°
2026-05-05 10:51 40.98301 14.39007 7285 ft 216 kts 292°
2026-05-05 10:51 40.98571 14.37081 8078 ft 216 kts 265°
2026-05-05 10:51 40.98265 14.35127 8966 ft 218 kts 248°
2026-05-05 10:51 40.97500 14.33393 9883 ft 221 kts 233°
2026-05-05 10:52 40.96399 14.31931 10657 ft 227 kts 222°
2026-05-05 10:52 40.95131 14.30688 11385 ft 232 kts 217°
2026-05-05 10:52 40.93757 14.29523 12113 ft 235 kts 215°
2026-05-05 10:52 40.92351 14.28383 12845 ft 239 kts 214°
2026-05-05 10:53 40.90923 14.27226 13572 ft 242 kts 215°
2026-05-05 10:53 40.89477 14.26043 14235 ft 245 kts 215°
2026-05-05 10:53 40.88023 14.24843 14867 ft 247 kts 215°
2026-05-05 10:53 40.86501 14.23746 15502 ft 254 kts 202°
2026-05-05 10:54 40.84746 14.23443 16093 ft 265 kts 178°
2026-05-05 10:54 40.82910 14.24033 16673 ft 274 kts 168°
2026-05-05 10:54 40.81078 14.24763 17287 ft 277 kts 168°
2026-05-05 10:54 40.79223 14.25495 17898 ft 279 kts 168°
2026-05-05 10:55 40.77347 14.26224 18483 ft 282 kts 168°
2026-05-05 10:55 40.75470 14.26946 18987 ft 285 kts 169°
2026-05-05 10:55 40.73651 14.28044 19476 ft 297 kts 146°
2026-05-05 10:55 40.72265 14.30112 19908 ft 310 kts 120°
2026-05-05 10:56 40.71615 14.32854 20330 ft 318 kts 94°
2026-05-05 10:56 40.71790 14.35772 20775 ft 321 kts 77°
2026-05-05 10:56 40.72481 14.38575 21239 ft 321 kts 56°
2026-05-05 10:56 40.73905 14.40793 21653 ft 315 kts 30°
2026-05-05 10:57 40.75830 14.42022 22088 ft 304 kts
2026-05-05 10:57 40.77864 14.42118 22528 ft 293 kts 342°
2026-05-05 10:57 40.79874 14.41555 22812 ft 302 kts 341°
2026-05-05 10:57 40.81989 14.40976 22956 ft 318 kts 342°
2026-05-05 10:58 40.84166 14.40413 23098 ft 334 kts 343°
2026-05-05 10:58 40.86509 14.39828 23236 ft 349 kts 343°
2026-05-05 10:58 40.88959 14.39224 23392 ft 364 kts 343°
2026-05-05 10:58 40.91498 14.38600 23526 ft 378 kts 344°
2026-05-05 10:59 40.94134 14.37950 23671 ft 392 kts 344°
2026-05-05 10:59 40.96825 14.37281 23794 ft 405 kts 344°
2026-05-05 10:59 40.99620 14.36585 24124 ft 411 kts 344°
2026-05-05 10:59 41.02444 14.35883 24609 ft 412 kts 344°
2026-05-05 11:00 41.05280 14.35177 25045 ft 415 kts 344°
2026-05-05 11:00 41.08118 14.34424 25483 ft 416 kts 340°
2026-05-05 11:00 41.10873 14.33269 25904 ft 413 kts 333°
2026-05-05 11:00 41.13482 14.31672 26327 ft 411 kts 326°
2026-05-05 11:01 41.15924 14.29712 26748 ft 411 kts 322°
2026-05-05 11:01 41.18360 14.27686 27147 ft 414 kts 322°
2026-05-05 11:01 41.20801 14.25670 27540 ft 416 kts 322°
2026-05-05 11:01 41.23240 14.23656 27931 ft 419 kts 322°
2026-05-05 11:02 41.25732 14.21593 28311 ft 421 kts 322°
2026-05-05 11:02 41.28228 14.19523 28663 ft 423 kts 322°
2026-05-05 11:02 41.30735 14.17439 28998 ft 426 kts 322°
2026-05-05 11:02 41.33258 14.15340 29329 ft 428 kts 321°
2026-05-05 11:03 41.35797 14.13225 29638 ft 431 kts 321°
2026-05-05 11:03 41.38313 14.11126 29942 ft 433 kts 321°
2026-05-05 11:03 41.40816 14.08894 30245 ft 431 kts 315°
2026-05-05 11:03 41.43021 14.06234 30545 ft 425 kts 307°
2026-05-05 11:04 41.44875 14.03196 30889 ft 419 kts 299°
2026-05-05 11:04 41.46370 13.99883 31204 ft 416 kts 294°
2026-05-05 11:04 41.47779 13.96509 31596 ft 415 kts 294°
2026-05-05 11:04 41.49191 13.93163 32051 ft 412 kts 294°
2026-05-05 11:05 41.50577 13.89876 32529 ft 410 kts 294°
2026-05-05 11:05 41.51968 13.86570 32985 ft 407 kts 294°
2026-05-05 11:05 41.53350 13.83275 33411 ft 405 kts 294°
2026-05-05 11:05 41.54721 13.79999 33776 ft 403 kts 294°
2026-05-05 11:06 41.56087 13.76730 34095 ft 402 kts 294°
2026-05-05 11:06 41.57448 13.73467 34380 ft 401 kts 294°
2026-05-05 11:06 41.58790 13.70246 34647 ft 401 kts 294°
2026-05-05 11:06 41.60149 13.66981 34907 ft 401 kts 294°
2026-05-05 11:07 41.61501 13.63732 35140 ft 400 kts 294°
2026-05-05 11:07 41.62856 13.60469 35388 ft 400 kts 294°
2026-05-05 11:07 41.64208 13.57211 35625 ft 400 kts 294°
2026-05-05 11:07 41.65558 13.53953 35838 ft 400 kts 295°
2026-05-05 11:08 41.66912 13.50683 36042 ft 400 kts 295°
2026-05-05 11:08 41.68246 13.47459 36262 ft 400 kts 295°
2026-05-05 11:08 41.69592 13.44200 36460 ft 400 kts 295°
2026-05-05 11:08 41.70938 13.40939 36636 ft 400 kts 295°
2026-05-05 11:09 41.72294 13.37674 36796 ft 402 kts 297°
2026-05-05 11:09 41.73849 13.34536 36972 ft 405 kts 302°
2026-05-05 11:09 41.75657 13.31615 37138 ft 409 kts 308°
2026-05-05 11:09 41.77606 13.28833 37346 ft 409 kts 308°
2026-05-05 11:10 41.79521 13.26071 37520 ft 409 kts 308°
2026-05-05 11:10 41.81456 13.23268 37699 ft 409 kts 308°
2026-05-05 11:10 41.83469 13.20550 37860 ft 411 kts 311°
2026-05-05 11:10 41.85543 13.17898 38029 ft 411 kts 311°
2026-05-05 11:11 41.87608 13.15244 38116 ft 411 kts 311°
2026-05-05 11:11 41.91721 13.09947 38112 ft 411 kts 311°
2026-05-05 11:12 41.95846 13.04626 38115 ft 410 kts 311°
2026-05-05 11:12 41.99951 12.99320 38116 ft 411 kts 311°
2026-05-05 11:13 42.03495 12.94733 38123 ft 412 kts 311°
2026-05-05 11:13 42.07628 12.89376 38124 ft 412 kts 311°
2026-05-05 11:14 42.11757 12.84012 38118 ft 412 kts 311°
2026-05-05 11:14 42.15882 12.78643 38116 ft 412 kts 311°
2026-05-05 11:15 42.19987 12.73289 38101 ft 412 kts 311°
2026-05-05 11:15 42.24112 12.67900 38100 ft 413 kts 311°
2026-05-05 11:16 42.28237 12.62501 38101 ft 413 kts 311°
2026-05-05 11:16 42.32343 12.57114 38093 ft 413 kts 311°
2026-05-05 11:17 42.36475 12.51685 38084 ft 413 kts 311°
2026-05-05 11:17 42.40597 12.46258 38082 ft 414 kts 311°
2026-05-05 11:18 42.44733 12.40803 38071 ft 414 kts 311°
2026-05-05 11:18 42.48828 12.35391 38064 ft 415 kts 311°
2026-05-05 11:19 42.52961 12.29917 38072 ft 415 kts 311°
2026-05-05 11:19 42.57098 12.24428 38077 ft 416 kts 311°
2026-05-05 11:20 42.61228 12.18936 38081 ft 415 kts 311°
2026-05-05 11:20 42.65352 12.13443 38061 ft 416 kts 310°
2026-05-05 11:21 42.69486 12.07927 38058 ft 416 kts 310°
2026-05-05 11:21 42.73608 12.02415 38070 ft 416 kts 310°
2026-05-05 11:22 42.77704 11.96927 38045 ft 416 kts 310°
2026-05-05 11:22 42.81838 11.91377 38046 ft 417 kts 310°
2026-05-05 11:23 42.85987 11.85825 38045 ft 419 kts 311°
2026-05-05 11:23 42.90180 11.80281 38051 ft 420 kts 311°
2026-05-05 11:24 42.94372 11.74726 38051 ft 420 kts 311°
2026-05-05 11:24 42.98540 11.69182 38041 ft 419 kts 311°
2026-05-05 11:25 43.02713 11.63619 38039 ft 419 kts 310°
2026-05-05 11:25 43.06886 11.58043 38034 ft 419 kts 310°
2026-05-05 11:26 43.11039 11.52484 38033 ft 420 kts 310°
2026-05-05 11:26 43.15212 11.46887 38031 ft 420 kts 310°
2026-05-05 11:27 43.19388 11.41275 38024 ft 421 kts 310°
2026-05-05 11:27 43.23571 11.35642 38017 ft 421 kts 310°
2026-05-05 11:28 43.27748 11.30004 38025 ft 421 kts 310°
2026-05-05 11:28 43.31921 11.24362 38014 ft 421 kts 310°
2026-05-05 11:29 43.36060 11.18753 38009 ft 420 kts 310°
2026-05-05 11:29 43.40225 11.13098 37999 ft 421 kts 310°
2026-05-05 11:30 43.44391 11.07431 37998 ft 421 kts 310°
2026-05-05 11:30 43.48557 11.01751 37990 ft 420 kts 310°
2026-05-05 11:31 43.52712 10.96074 37983 ft 421 kts 310°
2026-05-05 11:31 43.56845 10.90417 37979 ft 421 kts 310°
2026-05-05 11:32 43.61006 10.84709 37983 ft 422 kts 310°
2026-05-05 11:32 43.65013 10.78820 37981 ft 420 kts 306°
2026-05-05 11:33 43.68851 10.72723 37975 ft 421 kts 306°
2026-05-05 11:33 43.72714 10.66608 37991 ft 422 kts 306°
2026-05-05 11:34 43.76548 10.60508 37996 ft 423 kts 306°
2026-05-05 11:34 43.80412 10.54344 38001 ft 424 kts 306°
2026-05-05 11:35 43.84284 10.48153 38011 ft 425 kts 306°
2026-05-05 11:35 43.88159 10.41943 37997 ft 425 kts 306°
2026-05-05 11:36 43.92016 10.35751 37993 ft 423 kts 306°
2026-05-05 11:36 43.95866 10.29553 38000 ft 423 kts 306°
2026-05-05 11:37 43.99063 10.24397 37994 ft 423 kts 306°
2026-05-05 11:37 44.02899 10.18200 37995 ft 423 kts 306°
2026-05-05 11:38 44.06740 10.11981 38001 ft 424 kts 306°
2026-05-05 11:38 44.10712 10.05855 37995 ft 426 kts 307°
2026-05-05 11:39 44.14681 9.99819 37997 ft 424 kts 307°
2026-05-05 11:39 44.18650 9.93722 37990 ft 425 kts 307°
2026-05-05 11:40 44.22622 9.87594 37990 ft 425 kts 307°
2026-05-05 11:40 44.26588 9.81458 37986 ft 426 kts 306°
2026-05-05 11:41 44.30552 9.75313 37977 ft 426 kts 306°
2026-05-05 11:41 44.34489 9.69196 37967 ft 426 kts 306°
2026-05-05 11:42 44.38453 9.63024 37957 ft 426 kts 306°
2026-05-05 11:42 44.42412 9.56847 37958 ft 427 kts 306°
2026-05-05 11:43 44.46323 9.50731 37955 ft 427 kts 306°
2026-05-05 11:43 44.50279 9.44532 37950 ft 426 kts 306°
2026-05-05 11:44 44.54231 9.38325 37950 ft 427 kts 306°
2026-05-05 11:44 44.58123 9.32199 37946 ft 427 kts 306°
2026-05-05 11:45 44.62068 9.25975 37957 ft 426 kts 306°
2026-05-05 11:45 44.66016 9.19747 37955 ft 427 kts 306°
2026-05-05 11:46 44.69935 9.13560 37963 ft 428 kts 306°
2026-05-05 11:46 44.73869 9.07340 37968 ft 429 kts 306°
2026-05-05 11:47 44.77879 9.00984 37988 ft 430 kts 306°
2026-05-05 11:47 44.81816 8.94729 37985 ft 430 kts 306°
2026-05-05 11:48 44.87770 8.85241 37987 ft 431 kts 306°
2026-05-05 11:48 44.91738 8.78900 38004 ft 431 kts 306°
2026-05-05 11:49 44.95707 8.72542 37999 ft 432 kts 305°
2026-05-05 11:49 44.99677 8.66170 37998 ft 432 kts 305°
2026-05-05 11:50 45.03628 8.59811 37999 ft 432 kts 305°
2026-05-05 11:50 45.07598 8.53410 37995 ft 433 kts 305°
2026-05-05 11:51 45.11564 8.46999 37998 ft 433 kts 305°
2026-05-05 11:51 45.15538 8.40559 38015 ft 433 kts 305°
2026-05-05 11:52 45.19508 8.34113 38013 ft 434 kts 305°
2026-05-05 11:52 45.23449 8.27698 38010 ft 434 kts 305°
2026-05-05 11:53 45.27422 8.21216 38011 ft 435 kts 305°
2026-05-05 11:53 45.31393 8.14725 37999 ft 435 kts 304°
2026-05-05 11:54 45.35362 8.08219 38003 ft 436 kts 304°
2026-05-05 11:54 45.39334 8.01694 38001 ft 436 kts 304°
2026-05-05 11:55 45.43307 7.95152 38009 ft 437 kts 304°
2026-05-05 11:55 45.47259 7.88629 38002 ft 437 kts 304°
2026-05-05 11:56 45.51242 7.82041 38001 ft 438 kts 304°
2026-05-05 11:56 45.55204 7.75473 37977 ft 436 kts 304°
2026-05-05 11:57 45.59155 7.68901 38000 ft 437 kts 304°
2026-05-05 11:57 45.63126 7.62285 38007 ft 439 kts 304°
2026-05-05 11:58 45.67083 7.55680 37991 ft 436 kts 304°
2026-05-05 11:58 45.71047 7.49040 37991 ft 441 kts 304°
2026-05-05 11:59 45.74999 7.42407 37995 ft 441 kts 304°
2026-05-05 11:59 45.79096 7.35838 37994 ft 446 kts 311°
2026-05-05 12:00 45.83966 7.30222 37996 ft 453 kts 320°
2026-05-05 12:00 45.89042 7.25064 37987 ft 453 kts 319°
2026-05-05 12:01 45.94189 7.19804 37960 ft 453 kts 319°
2026-05-05 12:01 45.99279 7.14599 37900 ft 451 kts 319°
2026-05-05 12:02 46.04401 7.09344 37903 ft 455 kts 319°
2026-05-05 12:02 46.09478 7.04133 37894 ft 453 kts 320°
2026-05-05 12:03 46.14500 6.98964 37901 ft 455 kts 320°
2026-05-05 12:03 46.19372 6.93934 37901 ft 458 kts 320°
2026-05-05 12:04 46.24404 6.88734 37908 ft 455 kts 320°
2026-05-05 12:04 46.29558 6.83394 37910 ft 456 kts 320°
2026-05-05 12:05 46.34717 6.78035 37906 ft 457 kts 320°
2026-05-05 12:05 46.39893 6.72645 37919 ft 457 kts 320°
2026-05-05 12:06 46.44894 6.67003 37907 ft 454 kts 313°
2026-05-05 12:06 46.49303 6.60476 37912 ft 453 kts 309°
2026-05-05 12:07 46.53655 6.53927 37917 ft 454 kts 310°
2026-05-05 12:07 46.58032 6.47310 37910 ft 453 kts 309°
2026-05-05 12:08 46.62401 6.40670 37908 ft 454 kts 309°
2026-05-05 12:08 46.66766 6.34015 37909 ft 455 kts 309°
2026-05-05 12:09 46.71136 6.27335 37895 ft 456 kts 309°
2026-05-05 12:09 46.75507 6.20638 37891 ft 456 kts 309°
2026-05-05 12:10 46.79890 6.13906 37892 ft 457 kts 309°
2026-05-05 12:10 46.84243 6.07204 37891 ft 458 kts 309°
2026-05-05 12:11 46.88631 6.00430 37889 ft 458 kts 309°
2026-05-05 12:11 46.93020 5.93637 37885 ft 459 kts 309°
2026-05-05 12:12 46.97438 5.86867 37881 ft 461 kts 311°
2026-05-05 12:12 47.01992 5.80325 37877 ft 462 kts 312°
2026-05-05 12:13 47.06586 5.73725 37871 ft 462 kts 312°
2026-05-05 12:13 47.11159 5.67089 37870 ft 462 kts 311°
2026-05-05 12:14 47.15731 5.60419 37864 ft 463 kts 311°
2026-05-05 12:14 47.20269 5.53780 37857 ft 463 kts 311°
2026-05-05 12:15 47.24830 5.47090 37866 ft 463 kts 311°
2026-05-05 12:15 47.29394 5.40380 37856 ft 463 kts 311°
2026-05-05 12:16 47.33956 5.33655 37857 ft 463 kts 311°
2026-05-05 12:16 47.38512 5.26923 37852 ft 463 kts 311°
2026-05-05 12:17 47.43072 5.20165 37859 ft 465 kts 311°
2026-05-05 12:17 47.47609 5.13425 37853 ft 464 kts 311°
2026-05-05 12:18 47.52154 5.06658 37857 ft 463 kts 311°
2026-05-05 12:18 47.56705 4.99860 37849 ft 463 kts 311°
2026-05-05 12:19 47.61230 4.93085 37844 ft 463 kts 311°
2026-05-05 12:19 47.65763 4.86280 37845 ft 463 kts 311°
2026-05-05 12:20 47.70265 4.79504 37839 ft 463 kts 311°
2026-05-05 12:20 47.74787 4.72678 37849 ft 463 kts 311°
2026-05-05 12:21 47.79309 4.65837 37842 ft 463 kts 311°
2026-05-05 12:21 47.83806 4.59015 37832 ft 462 kts 311°
2026-05-05 12:22 47.88297 4.52183 37829 ft 461 kts 311°
2026-05-05 12:22 47.92778 4.45349 37825 ft 460 kts 311°
2026-05-05 12:23 47.96504 4.39653 37821 ft 461 kts 311°
2026-05-05 12:23 48.01710 4.31671 37832 ft 462 kts 311°
2026-05-05 12:24 48.05468 4.25895 37830 ft 462 kts 311°
2026-05-05 12:24 48.09904 4.19062 37833 ft 460 kts 311°
2026-05-05 12:25 48.14365 4.12169 37828 ft 460 kts 311°
2026-05-05 12:25 48.18817 4.05274 37828 ft 460 kts 311°
2026-05-05 12:26 48.22336 3.99810 37835 ft 460 kts 311°
2026-05-05 12:26 48.26776 3.92900 37833 ft 460 kts 311°
2026-05-05 12:27 48.31188 3.86016 37842 ft 460 kts 311°
2026-05-05 12:27 48.35626 3.79072 37834 ft 460 kts 311°
2026-05-05 12:28 48.39988 3.72228 37826 ft 459 kts 311°
2026-05-05 12:28 48.44404 3.65282 37821 ft 459 kts 311°
2026-05-05 12:29 48.48835 3.58292 37831 ft 460 kts 311°
2026-05-05 12:29 48.53227 3.51347 37830 ft 460 kts 311°
2026-05-05 12:30 48.57650 3.44333 37834 ft 459 kts 311°
2026-05-05 12:30 48.62050 3.37337 37825 ft 459 kts 311°
2026-05-05 12:31 48.66450 3.30322 37828 ft 459 kts 311°
2026-05-05 12:31 48.70849 3.23287 37847 ft 461 kts 311°
2026-05-05 12:32 48.75237 3.16253 37835 ft 460 kts 311°
2026-05-05 12:32 48.79629 3.09196 37832 ft 460 kts 311°
2026-05-05 12:33 48.84200 3.02414 37834 ft 462 kts 320°
2026-05-05 12:33 48.89240 2.97261 37840 ft 464 kts 329°
2026-05-05 12:34 48.94713 2.92474 37848 ft 464 kts 329°
2026-05-05 12:34 49.00292 2.87561 37846 ft 465 kts 329°
2026-05-05 12:35 49.05892 2.82636 37853 ft 464 kts 329°
2026-05-05 12:35 49.11504 2.77691 37853 ft 466 kts 329°
2026-05-05 12:36 49.16996 2.72841 37854 ft 464 kts 329°
2026-05-05 12:36 49.22564 2.67910 37855 ft 466 kts 328°
2026-05-05 12:37 49.28177 2.62927 37858 ft 466 kts 328°
2026-05-05 12:37 49.33787 2.57934 37865 ft 467 kts 328°
2026-05-05 12:38 49.39292 2.53020 37877 ft 467 kts 328°
2026-05-05 12:38 49.44909 2.47994 37882 ft 467 kts 328°
2026-05-05 12:39 49.50598 2.43158 37886 ft 468 kts 334°
2026-05-05 12:39 49.56699 2.39800 37881 ft 469 kts 343°
2026-05-05 12:40 49.62972 2.36948 37882 ft 469 kts 342°
2026-05-05 12:40 49.69230 2.34075 37884 ft 468 kts 342°
2026-05-05 12:41 49.75483 2.31217 37885 ft 468 kts 342°
2026-05-05 12:41 49.81737 2.28356 37885 ft 468 kts 342°
2026-05-05 12:42 49.87940 2.25512 37891 ft 467 kts 342°
2026-05-05 12:42 49.94174 2.22645 37891 ft 469 kts 342°
2026-05-05 12:43 50.00500 2.19727 37888 ft 477 kts 342°
2026-05-05 12:43 50.06858 2.16789 37893 ft 477 kts 342°
2026-05-05 12:44 50.13191 2.13853 37894 ft 477 kts 342°
2026-05-05 12:44 50.19437 2.10949 37895 ft 476 kts 342°
2026-05-05 12:45 50.25710 2.08025 37899 ft 476 kts 342°
2026-05-05 12:45 50.32057 2.05058 37903 ft 476 kts 342°
2026-05-05 12:46 50.38060 2.00843 37897 ft 472 kts 326°
2026-05-05 12:46 50.43182 1.94454 37906 ft 470 kts 317°
2026-05-05 12:47 50.48093 1.87785 37912 ft 469 kts 317°
2026-05-05 12:47 50.53022 1.81065 37914 ft 469 kts 317°
2026-05-05 12:48 50.57946 1.74316 37909 ft 468 kts 317°
2026-05-05 12:48 50.62848 1.67570 37915 ft 468 kts 317°
2026-05-05 12:49 50.67748 1.60808 37915 ft 467 kts 317°
2026-05-05 12:49 50.72600 1.54092 37921 ft 466 kts 316°
2026-05-05 12:50 50.77472 1.47331 37917 ft 467 kts 316°
2026-05-05 12:50 50.82344 1.40551 37934 ft 466 kts 316°
2026-05-05 12:51 50.87217 1.33748 37945 ft 465 kts 316°
2026-05-05 12:51 50.92048 1.26990 37956 ft 466 kts 316°
2026-05-05 12:52 50.96859 1.20238 37959 ft 465 kts 316°
2026-05-05 12:52 51.01708 1.13413 37966 ft 466 kts 316°
2026-05-05 12:53 51.07088 1.06028 37964 ft 471 kts 322°
2026-05-05 12:53 51.12391 1.00186 37964 ft 471 kts 323°
2026-05-05 12:54 51.20410 0.91281 37962 ft 471 kts 323°
2026-05-05 12:55 51.25778 0.85308 38012 ft 471 kts 323°
2026-05-05 12:55 51.31159 0.79306 38020 ft 472 kts 323°
2026-05-05 12:56 51.36517 0.73311 37968 ft 472 kts 323°
2026-05-05 12:56 51.41903 0.67267 37966 ft 472 kts 323°
2026-05-05 12:57 51.47287 0.61209 37967 ft 472 kts 323°
2026-05-05 12:57 51.52641 0.55166 37965 ft 473 kts 323°
2026-05-05 12:58 51.58022 0.49075 37965 ft 473 kts 323°
2026-05-05 12:58 51.63312 0.43069 37969 ft 473 kts 323°
2026-05-05 12:59 51.68685 0.36952 37962 ft 473 kts 323°
2026-05-05 12:59 51.74053 0.30822 37966 ft 473 kts 323°
2026-05-05 13:00 51.82057 0.21647 37964 ft 472 kts 323°
2026-05-05 13:01 51.92772 0.09301 37965 ft 471 kts 323°
2026-05-05 13:01 51.98074 0.03164 37962 ft 471 kts 323°
2026-05-05 13:02 52.03473 -0.02853 37968 ft 471 kts 329°
2026-05-05 13:02 52.09245 -0.07888 37968 ft 471 kts 330°
2026-05-05 13:03 52.15011 -0.12948 37969 ft 470 kts 330°
2026-05-05 13:03 52.20771 -0.18019 37967 ft 470 kts 330°
2026-05-05 13:04 52.26521 -0.23092 37970 ft 469 kts 330°
2026-05-05 13:04 52.32228 -0.28141 37975 ft 469 kts 330°
2026-05-05 13:05 52.37946 -0.33213 37974 ft 469 kts 330°
2026-05-05 13:05 52.43680 -0.38312 37969 ft 469 kts 330°
2026-05-05 13:06 52.49406 -0.43420 37968 ft 469 kts 330°
2026-05-05 13:06 52.55149 -0.48559 37962 ft 468 kts 330°
2026-05-05 13:07 52.60855 -0.53680 37968 ft 468 kts 330°
2026-05-05 13:07 52.66573 -0.58827 37967 ft 468 kts 330°
2026-05-05 13:08 52.72249 -0.63952 37969 ft 467 kts 330°
2026-05-05 13:08 52.77949 -0.69114 37989 ft 466 kts 330°
2026-05-05 13:09 52.82671 -0.73402 37987 ft 466 kts 330°
2026-05-05 13:09 52.89282 -0.79423 37991 ft 465 kts 330°
2026-05-05 13:10 52.93987 -0.83722 37993 ft 465 kts 330°
2026-05-05 13:10 52.99649 -0.88909 37992 ft 464 kts 329°
2026-05-05 13:11 53.05300 -0.94098 37991 ft 463 kts 329°
2026-05-05 13:11 53.10937 -0.99289 37992 ft 463 kts 329°
2026-05-05 13:12 53.17142 -1.05021 37997 ft 463 kts 329°
2026-05-05 13:12 53.26543 -1.13742 37996 ft 462 kts 329°
2026-05-05 13:13 53.32166 -1.18979 37950 ft 462 kts 329°
2026-05-05 13:13 53.34913 -1.21544 37720 ft 456 kts 329°
2026-05-05 13:13 53.37699 -1.24143 37436 ft 445 kts 330°
2026-05-05 13:14 53.40491 -1.26271 37158 ft 438 kts 339°
2026-05-05 13:14 53.43416 -1.27737 36902 ft 443 kts 346°
2026-05-05 13:14 53.46444 -1.28548 36647 ft 450 kts 354°
2026-05-05 13:14 53.49571 -1.28918 36392 ft 450 kts 354°
2026-05-05 13:15 53.52693 -1.29304 36131 ft 448 kts 354°
2026-05-05 13:15 53.55779 -1.29872 35877 ft 447 kts 348°
2026-05-05 13:15 53.58801 -1.31178 35627 ft 447 kts 339°
2026-05-05 13:15 53.64030 -1.35458 34534 ft 451 kts 327°
2026-05-05 13:16 53.69453 -1.40964 32794 ft 456 kts 328°
2026-05-05 13:16 53.74883 -1.46467 31202 ft 456 kts 327°
2026-05-05 13:16 53.79450 -1.51119 30098 ft 451 kts 327°
2026-05-05 13:16 53.82129 -1.53856 29514 ft 451 kts 327°
2026-05-05 13:17 53.84680 -1.56467 28941 ft 452 kts 327°
2026-05-05 13:17 53.87330 -1.59182 28335 ft 449 kts 327°
2026-05-05 13:17 53.89762 -1.61677 27790 ft 444 kts 327°
2026-05-05 13:18 53.92386 -1.64373 27202 ft 438 kts 327°
2026-05-05 13:18 53.94977 -1.67039 26653 ft 432 kts 326°
2026-05-05 13:18 53.97532 -1.69672 26054 ft 427 kts 326°
2026-05-05 13:18 54.00066 -1.72289 25445 ft 424 kts 326°
2026-05-05 13:19 54.02558 -1.74863 25131 ft 413 kts 326°
2026-05-05 13:19 54.04985 -1.77370 24813 ft 407 kts 326°
2026-05-05 13:19 54.07422 -1.79893 24327 ft 409 kts 326°
2026-05-05 13:19 54.09848 -1.82407 23811 ft 407 kts 326°
2026-05-05 13:20 54.12348 -1.84639 23262 ft 406 kts 336°
2026-05-05 13:20 54.15062 -1.85720 22644 ft 408 kts 352°
2026-05-05 13:20 54.17894 -1.85531 22033 ft 409 kts
2026-05-05 13:20 54.20686 -1.84657 21434 ft 406 kts
2026-05-05 13:21 54.23452 -1.83782 20835 ft 403 kts
2026-05-05 13:21 54.26197 -1.82915 20270 ft 399 kts
2026-05-05 13:21 54.28932 -1.82054 19679 ft 397 kts
2026-05-05 13:21 54.31639 -1.81202 19101 ft 394 kts
2026-05-05 13:22 54.34328 -1.80356 18530 ft 391 kts
2026-05-05 13:22 54.36997 -1.79515 17920 ft 388 kts
2026-05-05 13:22 54.39649 -1.78679 17250 ft 386 kts
2026-05-05 13:22 54.42130 -1.77895 16611 ft 378 kts
2026-05-05 13:23 54.44687 -1.77085 15883 ft 371 kts
2026-05-05 13:23 54.47207 -1.76287 15130 ft 365 kts
2026-05-05 13:23 54.49652 -1.75513 14410 ft 359 kts
2026-05-05 13:23 54.52095 -1.74739 13673 ft 355 kts
2026-05-05 13:24 54.54500 -1.73977 12931 ft 349 kts
2026-05-05 13:24 54.56861 -1.73227 12295 ft 340 kts
2026-05-05 13:24 54.59160 -1.72493 11730 ft 331 kts
2026-05-05 13:24 54.61392 -1.71781 11224 ft 321 kts
2026-05-05 13:25 54.63498 -1.71108 10743 ft 313 kts
2026-05-05 13:25 54.65602 -1.70436 10322 ft 303 kts
2026-05-05 13:25 54.67641 -1.69783 9903 ft 293 kts
2026-05-05 13:25 54.69556 -1.69536 9459 ft 281 kts 352°
2026-05-05 13:26 54.71399 -1.70383 8963 ft 271 kts 333°
2026-05-05 13:26 54.73048 -1.71893 8449 ft 265 kts 330°
2026-05-05 13:26 54.74635 -1.73351 8026 ft 259 kts 330°
2026-05-05 13:26 54.75927 -1.74530 7671 ft 254 kts 331°
2026-05-05 13:27 54.77265 -1.75748 7245 ft 251 kts 331°
2026-05-05 13:27 54.78770 -1.77118 6898 ft 239 kts 331°
2026-05-05 13:27 54.80231 -1.78448 6398 ft 237 kts 331°
2026-05-05 13:27 54.81682 -1.79771 5844 ft 234 kts 332°
2026-05-05 13:28 54.83124 -1.81090 5314 ft 232 kts 332°
2026-05-05 13:28 54.84541 -1.82384 4873 ft 227 kts 332°
2026-05-05 13:28 54.85927 -1.83655 4427 ft 223 kts 333°
2026-05-05 13:28 54.87288 -1.84906 3981 ft 220 kts 333°
2026-05-05 13:29 54.88628 -1.86137 3586 ft 215 kts 334°
2026-05-05 13:29 54.89935 -1.87336 3263 ft 209 kts 334°
2026-05-05 13:29 54.91189 -1.88488 2959 ft 204 kts 334°
2026-05-05 13:29 54.92411 -1.89611 2815 ft 190 kts 335°
2026-05-05 13:30 54.93524 -1.90636 2813 ft 173 kts 335°
2026-05-05 13:30 54.94534 -1.91563 2807 ft 154 kts 335°
2026-05-05 13:30 54.95433 -1.92390 2804 ft 137 kts 336°
2026-05-05 13:30 54.96307 -1.92921 2836 ft 139 kts 359°
2026-05-05 13:31 54.97221 -1.92427 2819 ft 139 kts 37°
2026-05-05 13:31 54.97848 -1.91173 2821 ft 139 kts 55°
2026-05-05 13:31 54.98304 -1.89679 2771 ft 141 kts 61°
2026-05-05 13:31 54.98708 -1.88113 2590 ft 141 kts 62°
2026-05-05 13:32 54.99107 -1.86622 2389 ft 140 kts 61°
2026-05-05 13:32 54.99510 -1.85099 2195 ft 135 kts 60°
2026-05-05 13:32 54.99906 -1.83616 2027 ft 136 kts 61°
2026-05-05 13:32 55.00307 -1.82107 1824 ft 136 kts 61°
2026-05-05 13:33 55.00691 -1.80656 1651 ft 130 kts 61°
2026-05-05 13:33 55.01057 -1.79278 1461 ft 121 kts 60°
2026-05-05 13:33 55.01405 -1.77971 1277 ft 119 kts 60°
2026-05-05 13:33 55.01760 -1.76643 1113 ft 128 kts 61°
2026-05-05 13:34 55.02119 -1.75280 920 ft 117 kts 60°
2026-05-05 13:34 55.02467 -1.73995 771 ft 119 kts 60°
2026-05-05 13:34 55.02817 -1.72655 576 ft 121 kts 63°
2026-05-05 13:34 55.03128 -1.71467 401 ft 111 kts 63°
2026-05-05 13:35 55.03397 -1.70460 289 ft 104 kts 62°
2026-05-05 13:35 55.03637 -1.69578 258 ft 65 kts 65°
2026-05-05 13:35 55.03748 -1.69158 254 ft 20 kts 65°
2026-05-05 13:35 55.03816 -1.68908 251 ft 26 kts 64°
2026-05-05 13:36 55.03898 -1.68591 249 ft 31 kts 64°
2026-05-05 13:36 55.04034 -1.68307 248 ft 29 kts 35°
2026-05-05 13:36 55.04145 -1.68269 247 ft 14 kts 297°
2026-05-05 13:36 55.04118 -1.68432 248 ft 17 kts 242°
2026-05-05 13:37 55.04056 -1.68653 249 ft 23 kts 245°
2026-05-05 13:37 55.03984 -1.68928 251 ft 26 kts 245°
2026-05-05 13:37 55.03908 -1.69222 253 ft 27 kts 246°
2026-05-05 13:37 55.03829 -1.69532 256 ft 28 kts 249°
2026-05-05 13:38 55.03783 -1.69870 259 ft 29 kts 263°
2026-05-05 13:38 55.03777 -1.70221 264 ft 26 kts 274°
2026-05-05 13:38 55.03777 -1.70401 267 ft 18 kts 249°
2026-05-05 13:38 55.03703 -1.70434 267 ft 12 kts 175°
2026-05-05 13:39 55.03611 -1.70475 267 ft 15 kts 225°
2026-05-05 13:39 55.03622 -1.70626 267 ft 10 kts 316°
2026-05-05 13:39 55.03660 -1.70648 267 ft 0 kts 349°